| time (UTC) | temp C | wind direction | speed KPH | gust KPH | rain 1hr cm | rain 24hr cm | rain mn cm | humidity % | barometer mb |
| 20260506092705 | 11 | 156 | 3.2 | 17.7 | 0.00 | 0.00 | 0.00 | 27 | 1011.8 |
| 20260506091704 | 11 | 263 | 6.4 | 17.7 | 0.00 | 0.00 | 0.00 | 25 | 1011.8 |
| 20260506091204 | 11 | 159 | 8.0 | 14.5 | 0.00 | 0.00 | 0.00 | 25 | 1011.9 |
| 20260506090207 | 11 | 221 | 4.8 | 9.7 | 0.00 | 0.00 | 0.00 | 26 | 1011.9 |
| 20260506085704 | 11 | 159 | 3.2 | 9.7 | 0.00 | 0.00 | 0.00 | 28 | 1012.0 |
| 20260506085205 | 11 | 142 | 3.2 | 11.3 | 0.00 | 0.00 | 0.00 | 26 | 1012.0 |
| 20260506084206 | 11 | 171 | 4.8 | 16.1 | 0.00 | 0.00 | 0.00 | 27 | 1012.0 |
| 20260506083704 | 11 | 134 | 4.8 | 16.1 | 0.00 | 0.00 | 0.00 | 26 | 1012.0 |
| 20260506083204 | 11 | 144 | 3.2 | 14.5 | 0.00 | 0.00 | 0.00 | 28 | 1012.1 |
| 20260506082705 | 11 | 147 | 4.8 | 14.5 | 0.00 | 0.00 | 0.00 | 29 | 1012.0 |
| 20260506082204 | 10 | 162 | 6.4 | 14.5 | 0.00 | 0.00 | 0.00 | 29 | 1012.1 |
| 20260506081704 | 11 | 179 | 4.8 | 14.5 | 0.00 | 0.00 | 0.00 | 30 | 1012.0 |
| 20260506081205 | 11 | 215 | 4.8 | 14.5 | 0.00 | 0.00 | 0.00 | 29 | 1012.0 |
| 20260506080204 | 10 | 146 | 4.8 | 14.5 | 0.00 | 0.00 | 0.00 | 31 | 1012.1 |
| 20260506073205 | 10 | 108 | 6.4 | 16.1 | 0.00 | 0.00 | 0.00 | 37 | 1012.1 |
| 20260506072705 | 10 | 133 | 8.0 | 16.1 | 0.00 | 0.00 | 0.00 | 38 | 1012.1 |
| 20260506072205 | 10 | 171 | 6.4 | 12.9 | 0.00 | 0.00 | 0.00 | 37 | 1012.1 |
| 20260506071704 | 9 | 113 | 6.4 | 12.9 | 0.00 | 0.00 | 0.00 | 40 | 1012.1 |
| 20260506071205 | 9 | 143 | 6.4 | 16.1 | 0.00 | 0.00 | 0.00 | 40 | 1012.0 |
| 20260506062204 | 7 | 161 | 1.6 | 6.4 | 0.00 | 0.00 | 0.00 | 61 | 1012.2 |
| 20260506060210 | 5 | 207 | 0.0 | 0.0 | 0.00 | 0.00 | 0.00 | 71 | 1012.3 |
| 20260506051205 | 1 | 207 | 0.0 | 0.0 | 0.00 | 0.00 | 0.00 | 84 | 1012.3 |
| 20260506050205 | 0 | 264 | 0.0 | 0.0 | 0.00 | 0.00 | 0.00 | 85 | 1012.4 |
| 20260506044704 | -1 | 264 | 0.0 | 0.0 | 0.00 | 0.00 | 0.00 | 84 | 1012.4 |
| 20260506044206 | -1 | 264 | 0.0 | 0.0 | 0.00 | 0.00 | 0.00 | 84 | 1012.4 |
| 20260506043704 | -1 | 264 | 0.0 | 0.0 | 0.00 | 0.00 | 0.00 | 84 | 1012.3 |
| 20260506043205 | -1 | 264 | 0.0 | 0.0 | 0.00 | 0.00 | 0.00 | 85 | 1012.4 |
| 20260506042204 | -1 | 264 | 0.0 | 0.0 | 0.00 | 0.00 | 0.00 | 87 | 1012.3 |
| 20260506041705 | -2 | 264 | 0.0 | 0.0 | 0.00 | 0.00 | 0.00 | 87 | 1012.2 |
| 20260506041205 | -2 | 264 | 0.0 | 0.0 | 0.00 | 0.00 | 0.00 | 88 | 1012.2 |
| 20260506040705 | -3 | 264 | 0.0 | 0.0 | 0.00 | 0.00 | 0.00 | 87 | 1012.2 |
| 20260506040204 | -3 | 264 | 0.0 | 0.0 | 0.00 | 0.00 | 0.00 | 87 | 1012.2 |
| 20260506035705 | -3 | 264 | 0.0 | 0.0 | 0.00 | 0.00 | 0.00 | 87 | 1012.2 |
| 20260506034704 | -3 | 264 | 0.0 | 0.0 | 0.00 | 0.00 | 0.00 | 87 | 1012.2 |
| 20260506033706 | -3 | 264 | 0.0 | 0.0 | 0.00 | 0.00 | 0.00 | 86 | 1012.2 |
| 20260506033205 | -3 | 264 | 0.0 | 0.0 | 0.00 | 0.00 | 0.00 | 86 | 1012.1 |
| 20260506032712 | -3 | 264 | 0.0 | 0.0 | 0.00 | 0.00 | 0.00 | 86 | 1012.1 |
| 20260506032207 | -3 | 264 | 0.0 | 0.0 | 0.00 | 0.00 | 0.00 | 86 | 1012.1 |
| 20260506031707 | -3 | 264 | 0.0 | 0.0 | 0.00 | 0.00 | 0.00 | 86 | 1012.1 |
| 20260506030705 | -3 | 264 | 0.0 | 0.0 | 0.00 | 0.00 | 0.00 | 86 | 1012.0 |
| 20260506030204 | -3 | 264 | 0.0 | 0.0 | 0.00 | 0.00 | 0.00 | 86 | 1012.0 |
| 20260506025705 | -3 | 264 | 0.0 | 0.0 | 0.00 | 0.00 | 0.00 | 86 | 1012.0 |
| 20260506024705 | -3 | 264 | 0.0 | 0.0 | 0.00 | 0.00 | 0.00 | 86 | 1012.0 |
| 20260506024204 | -3 | 264 | 0.0 | 1.6 | 0.00 | 0.00 | 0.00 | 86 | 1012.0 |
| 20260506023705 | -3 | 264 | 0.0 | 1.6 | 0.00 | 0.00 | 0.00 | 85 | 1012.0 |
| 20260506023211 | -3 | 264 | 0.0 | 1.6 | 0.00 | 0.00 | 0.00 | 86 | 1012.0 |
| 20260506022704 | -3 | 264 | 0.0 | 0.0 | 0.00 | 0.00 | 0.00 | 85 | 1012.0 |
| 20260506022204 | -3 | 264 | 0.0 | 0.0 | 0.00 | 0.00 | 0.00 | 85 | 1012.1 |
| 20260506022016 | -3 | 264 | 0.0 | 0.0 | 0.00 | 0.00 | 0.00 | 85 | 1012.0 |
| 20260506021207 | -3 | 264 | 0.0 | 1.6 | 0.00 | 0.00 | 0.00 | 85 | 1012.0 |
| 20260506020705 | -2 | 264 | 0.0 | 1.6 | 0.00 | 0.00 | 0.00 | 85 | 1012.0 |
| 20260506020205 | -2 | 264 | 0.0 | 1.6 | 0.00 | 0.00 | 0.00 | 85 | 1011.9 |
| 20260506015704 | -2 | 264 | 0.0 | 1.6 | 0.00 | 0.00 | 0.00 | 85 | 1012.0 |
| 20260506015204 | -2 | 264 | 0.0 | 1.6 | 0.00 | 0.00 | 0.00 | 85 | 1011.9 |
| 20260506014705 | -2 | 264 | 0.0 | 0.0 | 0.00 | 0.00 | 0.00 | 85 | 1012.0 |
| 20260506014206 | -2 | 264 | 0.0 | 0.0 | 0.00 | 0.00 | 0.00 | 84 | 1011.9 |
| 20260506013705 | -2 | 264 | 0.0 | 0.0 | 0.00 | 0.00 | 0.00 | 84 | 1012.0 |
| 20260506012705 | -2 | 264 | 0.0 | 0.0 | 0.00 | 0.00 | 0.00 | 84 | 1011.9 |
| 20260506012205 | -2 | 264 | 0.0 | 0.0 | 0.00 | 0.00 | 0.00 | 84 | 1011.9 |
| 20260506011705 | -2 | 264 | 0.0 | 1.6 | 0.00 | 0.00 | 0.00 | 84 | 1011.9 |
| 20260506011205 | -2 | 264 | 0.0 | 1.6 | 0.00 | 0.00 | 0.00 | 83 | 1011.9 |
| 20260506010704 | -2 | 264 | 0.0 | 1.6 | 0.00 | 0.00 | 0.00 | 83 | 1011.9 |
| 20260506010204 | -2 | 264 | 0.0 | 0.0 | 0.00 | 0.00 | 0.00 | 83 | 1011.8 |
| 20260506005205 | -2 | 264 | 0.0 | 3.2 | 0.00 | 0.00 | 0.00 | 83 | 1011.8 |
| 20260506004704 | -2 | 264 | 0.0 | 3.2 | 0.00 | 0.00 | 0.00 | 83 | 1011.8 |
| 20260506004205 | -2 | 264 | 0.0 | 1.6 | 0.00 | 0.00 | 0.00 | 83 | 1011.9 |
| 20260506003704 | -2 | 264 | 0.0 | 0.0 | 0.00 | 0.00 | 0.00 | 83 | 1011.8 |
| 20260506003204 | -2 | 264 | 0.0 | 0.0 | 0.00 | 0.00 | 0.00 | 83 | 1011.8 |
| 20260506002705 | -2 | 264 | 0.0 | 0.0 | 0.00 | 0.00 | 0.00 | 83 | 1011.7 |
| 20260506002204 | -2 | 264 | 0.0 | 0.0 | 0.00 | 0.00 | 0.00 | 82 | 1011.7 |
| 20260506001704 | -2 | 264 | 0.0 | 0.0 | 0.00 | 0.00 | 0.00 | 82 | 1011.8 |
| 20260506001206 | -1 | 264 | 0.0 | 0.0 | 0.00 | 0.00 | 0.00 | 82 | 1011.6 |
| 20260506000205 | -1 | 264 | 0.0 | 0.0 | 0.00 | 0.00 | 0.00 | 81 | 1011.7 |
| 20260505235705 | -1 | 264 | 0.0 | 0.0 | 0.00 | 0.00 | 0.00 | 81 | 1011.7 |
| 20260505235204 | -1 | 264 | 0.0 | 0.0 | 0.00 | 0.00 | 0.00 | 81 | 1011.7 |
| 20260505234705 | -1 | 264 | 0.0 | 0.0 | 0.00 | 0.00 | 0.00 | 80 | 1011.7 |
| 20260505233704 | -1 | 264 | 0.0 | 0.0 | 0.00 | 0.00 | 0.00 | 81 | 1011.7 |
| 20260505233204 | -1 | 264 | 0.0 | 0.0 | 0.00 | 0.00 | 0.00 | 80 | 1011.7 |
| 20260505232704 | -1 | 264 | 0.0 | 0.0 | 0.00 | 0.00 | 0.00 | 80 | 1011.7 |
| 20260505232205 | -1 | 264 | 0.0 | 0.0 | 0.00 | 0.00 | 0.00 | 79 | 1011.7 |
| 20260505231705 | -1 | 264 | 0.0 | 0.0 | 0.00 | 0.00 | 0.00 | 80 | 1011.7 |
| 20260505231204 | -1 | 264 | 0.0 | 0.0 | 0.00 | 0.00 | 0.00 | 80 | 1011.8 |
| 20260505230705 | -1 | 264 | 0.0 | 0.0 | 0.00 | 0.00 | 0.00 | 79 | 1011.8 |
| 20260505225704 | 0 | 264 | 0.0 | 0.0 | 0.00 | 0.00 | 0.00 | 78 | 1011.9 |
| 20260505225205 | 0 | 264 | 0.0 | 0.0 | 0.00 | 0.00 | 0.00 | 77 | 1011.9 |
| 20260505224205 | 0 | 264 | 0.0 | 1.6 | 0.00 | 0.00 | 0.00 | 77 | 1011.8 |
| 20260505223705 | 0 | 264 | 0.0 | 3.2 | 0.00 | 0.00 | 0.00 | 77 | 1011.8 |
| 20260505223205 | 0 | 264 | 0.0 | 3.2 | 0.00 | 0.00 | 0.00 | 76 | 1011.9 |
| 20260505222705 | 0 | 264 | 0.0 | 3.2 | 0.00 | 0.00 | 0.00 | 75 | 1011.9 |
| 20260505222206 | 0 | 264 | 0.0 | 0.0 | 0.00 | 0.00 | 0.00 | 74 | 1011.9 |
| 20260505221704 | 0 | 264 | 0.0 | 0.0 | 0.00 | 0.00 | 0.00 | 74 | 1011.9 |
| 20260505221205 | 0 | 264 | 0.0 | 0.0 | 0.00 | 0.00 | 0.00 | 73 | 1011.9 |
| 20260505220704 | 0 | 264 | 0.0 | 0.0 | 0.00 | 0.00 | 0.00 | 73 | 1011.9 |
| 20260505215704 | 0 | 264 | 0.0 | 0.0 | 0.00 | 0.00 | 0.00 | 72 | 1011.9 |
| 20260505215204 | 1 | 264 | 0.0 | 0.0 | 0.00 | 0.00 | 0.00 | 72 | 1011.9 |
| 20260505214704 | 1 | 264 | 0.0 | 0.0 | 0.00 | 0.00 | 0.00 | 71 | 1011.9 |
| 20260505214205 | 1 | 264 | 0.0 | 0.0 | 0.00 | 0.00 | 0.00 | 71 | 1011.9 |
| 20260505213705 | 1 | 264 | 0.0 | 0.0 | 0.00 | 0.00 | 0.00 | 70 | 1011.8 |
| 20260505213205 | 1 | 264 | 0.0 | 0.0 | 0.00 | 0.00 | 0.00 | 70 | 1011.7 |
| 20260505212704 | 1 | 264 | 0.0 | 0.0 | 0.00 | 0.00 | 0.00 | 69 | 1011.7 |
| 20260505212204 | 1 | 264 | 0.0 | 0.0 | 0.00 | 0.00 | 0.00 | 69 | 1011.8 |
| 20260505211705 | 1 | 264 | 0.0 | 0.0 | 0.00 | 0.00 | 0.00 | 68 | 1011.8 |
| 20260505210515 | 2 | 264 | 0.0 | 0.0 | 0.00 | 0.00 | 0.00 | 66 | 1011.7 |
| 20260505205704 | 2 | 264 | 0.0 | 0.0 | 0.00 | 0.00 | 0.00 | 65 | 1011.7 |
| 20260505205204 | 2 | 264 | 0.0 | 0.0 | 0.00 | 0.00 | 0.00 | 64 | 1011.7 |
| 20260505204707 | 2 | 264 | 0.0 | 0.0 | 0.00 | 0.00 | 0.00 | 63 | 1011.7 |
| 20260505203705 | 3 | 264 | 0.0 | 1.6 | 0.00 | 0.00 | 0.00 | 62 | 1011.6 |
| 20260505203204 | 3 | 264 | 0.0 | 1.6 | 0.00 | 0.00 | 0.00 | 61 | 1011.5 |
| 20260505202705 | 3 | 264 | 0.0 | 1.6 | 0.00 | 0.00 | 0.00 | 60 | 1011.5 |
| 20260505202205 | 3 | 264 | 0.0 | 1.6 | 0.00 | 0.00 | 0.00 | 60 | 1011.5 |
| 20260505200704 | 3 | 264 | 0.0 | 3.2 | 0.00 | 0.00 | 0.00 | 57 | 1011.4 |
| 20260505200204 | 4 | 264 | 0.0 | 3.2 | 0.00 | 0.00 | 0.00 | 57 | 1011.4 |
| 20260505195205 | 4 | 264 | 0.0 | 0.0 | 0.00 | 0.00 | 0.00 | 56 | 1011.2 |
| 20260505194705 | 5 | 264 | 0.0 | 0.0 | 0.00 | 0.00 | 0.00 | 55 | 1011.2 |
| 20260505194205 | 5 | 264 | 0.0 | 0.0 | 0.00 | 0.00 | 0.00 | 54 | 1011.3 |
| 20260505193705 | 5 | 264 | 0.0 | 0.0 | 0.00 | 0.00 | 0.00 | 54 | 1011.2 |
| 20260505193205 | 5 | 264 | 0.0 | 0.0 | 0.00 | 0.00 | 0.00 | 53 | 1011.2 |
| 20260505192705 | 6 | 264 | 0.0 | 0.0 | 0.00 | 0.00 | 0.00 | 51 | 1011.1 |
| 20260505192204 | 6 | 264 | 0.0 | 1.6 | 0.00 | 0.00 | 0.00 | 50 | 1011.1 |
| 20260505191704 | 6 | 264 | 0.0 | 1.6 | 0.00 | 0.00 | 0.00 | 48 | 1011.1 |
| 20260505191205 | 7 | 264 | 0.0 | 3.2 | 0.00 | 0.00 | 0.00 | 46 | 1011.1 |
| 20260505190704 | 7 | 264 | 0.0 | 3.2 | 0.00 | 0.00 | 0.00 | 44 | 1011.0 |
| 20260505190204 | 7 | 264 | 0.0 | 3.2 | 0.00 | 0.00 | 0.00 | 43 | 1010.9 |
| 20260505185707 | 8 | 264 | 0.0 | 6.4 | 0.00 | 0.00 | 0.00 | 41 | 1010.9 |
| 20260505185205 | 8 | 264 | 1.6 | 6.4 | 0.00 | 0.00 | 0.00 | 41 | 1010.9 |
| 20260505184706 | 8 | 264 | 1.6 | 6.4 | 0.00 | 0.00 | 0.00 | 38 | 1010.8 |
| 20260505184205 | 8 | 263 | 3.2 | 6.4 | 0.00 | 0.00 | 0.00 | 37 | 1010.8 |
| 20260505183708 | 8 | 271 | 3.2 | 9.7 | 0.00 | 0.00 | 0.00 | 36 | 1010.8 |
| 20260505182705 | 9 | 264 | 4.8 | 11.3 | 0.00 | 0.00 | 0.00 | 35 | 1010.8 |
| 20260505182205 | 9 | 266 | 4.8 | 9.7 | 0.00 | 0.00 | 0.00 | 34 | 1010.7 |
| 20260505181704 | 9 | 261 | 4.8 | 11.3 | 0.00 | 0.00 | 0.00 | 34 | 1010.7 |
| 20260505181204 | 10 | 247 | 4.8 | 14.5 | 0.00 | 0.00 | 0.00 | 34 | 1010.7 |
| 20260505180704 | 10 | 256 | 6.4 | 14.5 | 0.00 | 0.00 | 0.00 | 34 | 1010.7 |
| 20260505180205 | 10 | 249 | 6.4 | 14.5 | 0.00 | 0.00 | 0.00 | 33 | 1010.6 |
| 20260505175705 | 10 | 265 | 4.8 | 12.9 | 0.00 | 0.00 | 0.00 | 33 | 1010.6 |
| 20260505175204 | 10 | 240 | 4.8 | 12.9 | 0.00 | 0.00 | 0.00 | 33 | 1010.6 |
| 20260505174705 | 10 | 248 | 4.8 | 12.9 | 0.00 | 0.00 | 0.00 | 31 | 1010.5 |
| 20260505174204 | 10 | 259 | 4.8 | 12.9 | 0.00 | 0.00 | 0.00 | 31 | 1010.4 |
| 20260505173704 | 10 | 254 | 6.4 | 16.1 | 0.00 | 0.00 | 0.00 | 31 | 1010.2 |
| 20260505173205 | 10 | 284 | 4.8 | 16.1 | 0.00 | 0.00 | 0.00 | 31 | 1010.4 |
| 20260505172204 | 10 | 260 | 8.0 | 20.9 | 0.00 | 0.00 | 0.00 | 30 | 1010.4 |
| 20260505171706 | 10 | 263 | 8.0 | 16.1 | 0.00 | 0.00 | 0.00 | 30 | 1010.3 |
| 20260505165204 | 10 | 250 | 4.8 | 20.9 | 0.00 | 0.00 | 0.00 | 29 | 1010.3 |
| 20260505164204 | 11 | 240 | 9.7 | 20.9 | 0.00 | 0.00 | 0.00 | 28 | 1010.3 |
| 20260505163704 | 11 | 251 | 8.0 | 20.9 | 0.00 | 0.00 | 0.00 | 25 | 1010.3 |
| 20260505163205 | 11 | 229 | 8.0 | 20.9 | 0.00 | 0.00 | 0.00 | 28 | 1010.3 |
| 20260505162709 | 11 | 252 | 8.0 | 20.9 | 0.00 | 0.00 | 0.00 | 27 | 1010.3 |
| 20260505161204 | 11 | 265 | 8.0 | 20.9 | 0.00 | 0.00 | 0.00 | 26 | 1010.3 |
| 20260505160204 | 11 | 267 | 9.7 | 22.5 | 0.00 | 0.00 | 0.00 | 26 | 1010.3 |
| 20260505153204 | 11 | 334 | 12.9 | 27.4 | 0.00 | 0.00 | 0.00 | 24 | 1010.4 |
| 20260505152704 | 11 | 242 | 11.3 | 27.4 | 0.00 | 0.00 | 0.00 | 23 | 1010.3 |
| 20260505151705 | 11 | 235 | 9.7 | 22.5 | 0.00 | 0.00 | 0.00 | 24 | 1010.3 |
| 20260505151205 | 11 | 315 | 9.7 | 22.5 | 0.00 | 0.00 | 0.00 | 24 | 1010.3 |
| 20260505150205 | 11 | 292 | 11.3 | 24.1 | 0.00 | 0.00 | 0.00 | 24 | 1010.3 |
| 20260505140205 | 11 | 342 | 11.3 | 24.1 | 0.00 | 0.00 | 0.00 | 22 | 1010.0 |
| 20260505130205 | 11 | 257 | 14.5 | 27.4 | 0.00 | 0.00 | 0.00 | 25 | 1010.0 |
| 20260505124205 | 11 | 284 | 14.5 | 27.4 | 0.00 | 0.00 | 0.00 | 25 | 1010.1 |
| 20260505123704 | 11 | 270 | 11.3 | 25.7 | 0.00 | 0.00 | 0.00 | 24 | 1010.0 |
| 20260505123205 | 11 | 288 | 11.3 | 25.7 | 0.00 | 0.00 | 0.00 | 26 | 1009.9 |
| 20260505122205 | 11 | 305 | 11.3 | 24.1 | 0.00 | 0.00 | 0.00 | 24 | 1010.1 |
| 20260505120704 | 11 | 304 | 12.9 | 25.7 | 0.00 | 0.00 | 0.00 | 27 | 1010.0 |
| 20260505120204 | 11 | 297 | 11.3 | 24.1 | 0.00 | 0.00 | 0.00 | 25 | 1010.0 |
| 20260505115706 | 11 | 296 | 12.9 | 27.4 | 0.00 | 0.00 | 0.00 | 27 | 1010.1 |
| 20260505114206 | 11 | 317 | 12.9 | 24.1 | 0.00 | 0.00 | 0.00 | 29 | 1010.0 |
| 20260505113704 | 11 | 292 | 11.3 | 22.5 | 0.00 | 0.00 | 0.00 | 29 | 1010.0 |
| 20260505113205 | 11 | 280 | 11.3 | 22.5 | 0.00 | 0.00 | 0.00 | 29 | 1010.0 |
| 20260505112705 | 11 | 290 | 12.9 | 24.1 | 0.00 | 0.00 | 0.00 | 28 | 1010.0 |
| 20260505112504 | 11 | 307 | 14.5 | 27.4 | 0.00 | 0.00 | 0.00 | 29 | 1009.9 |
| 20260505111705 | 11 | 238 | 12.9 | 27.4 | 0.00 | 0.00 | 0.00 | 26 | 1009.9 |
| 20260505111205 | 11 | 300 | 12.9 | 27.4 | 0.00 | 0.00 | 0.00 | 28 | 1009.9 |
| 20260505110704 | 11 | 314 | 12.9 | 24.1 | 0.00 | 0.00 | 0.00 | 29 | 1009.8 |
| 20260505110205 | 11 | 284 | 9.7 | 20.9 | 0.00 | 0.00 | 0.00 | 33 | 1009.8 |
| 20260505102204 | 11 | 235 | 8.0 | 22.5 | 0.00 | 0.00 | 0.00 | 35 | 1009.8 |
| 20260505101204 | 10 | 321 | 8.0 | 22.5 | 0.00 | 0.00 | 0.00 | 35 | 1009.8 |
| 20260505100705 | 10 | 304 | 6.4 | 22.5 | 0.00 | 0.00 | 0.00 | 37 | 1009.8 |
| 20260505100205 | 10 | 267 | 6.4 | 22.5 | 0.00 | 0.00 | 0.00 | 36 | 1009.7 |
| 20260505095704 | 10 | 244 | 9.7 | 22.5 | 0.00 | 0.00 | 0.00 | 35 | 1009.8 |
| 20260505095209 | 10 | 297 | 9.7 | 20.9 | 0.00 | 0.00 | 0.00 | 35 | 1009.9 |
| 20260505094705 | 10 | 261 | 6.4 | 16.1 | 0.00 | 0.00 | 0.00 | 35 | 1009.9 |
| 20260505094205 | 10 | 162 | 4.8 | 16.1 | 0.00 | 0.00 | 0.00 | 34 | 1009.9 |
| 20260505093705 | 10 | 275 | 6.4 | 16.1 | 0.00 | 0.00 | 0.00 | 37 | 1009.8 |
| 20260505093206 | 10 | 294 | 8.0 | 16.1 | 0.00 | 0.00 | 0.00 | 38 | 1009.9 |